Weather History for 94866 - November, 2012

Change the Weather History Date:

Monday, November 5, 2012

  Actual Average Record
Temperature  
Mean Temperature 74 °F -  
Max Temperature 80 °F 69 °F - ()
Min Temperature 69 °F 48 °F - ()
Cooling Degree Days 10    
Growing Degree Days 24 (Base 50)    
Moisture  
Dew Point 46 °F    
Average Humidity 35    
Maximum Humidity 60    
Minimum Humidity 18    
Precipitation  
Precipitation 0.00 in 0.08 in - ()
Sea Level Pressure  
Sea Level Pressure 29.82 in    
Wind  
Wind Speed 20 mph ()    
Max Wind Speed 30 mph    
Max Gust Speed 36 mph    
Visibility 13.7 miles    
Events Rain    
T = Trace of Precipitation, MM = Missing Value Source: Averaged Metar Reports

Daily Weather History Graph

Daily Weather History Graph

Search for Another Location

Airport or City:

Trip Planner

Search our weather history database for the weather conditions in past years. The results will help you decide how hot, cold, wet, or windy it might be!

Date:

Astronomy

Nov. 05, 2012 Rise Set
Actual Time 6:09 AM AEDT 7:59 PM AEDT
Civil Twilight 5:41 AM AEDT 8:27 PM AEDT
Nautical Twilight 5:07 AM AEDT 9:02 PM AEDT
Astronomical Twilight 4:30 AM AEDT 9:39 PM AEDT
Moon 12:27 AM AEDT (11/5) 10:47 AM AEDT (11/5)
Length of Visible Light 14h 46m
Length of Day
13h 49m
Waning Gibbous, 69% of the Moon is Illuminated
Nov 5
Waning Gibbous
Nov 7
Last Quarter
Nov 14
New
Nov 21
First Quarter
Nov 29
Full

Hourly Weather History & Observations

Time (AEDT) Temp. Dew Point Humidity Pressure Visibility Wind Dir Wind Speed Gust Speed Precip Events Conditions
12:00 AM 74 °F 42 °F 20% 29.79 in 19 mi North 19.6 mph - -   Partly Cloudy
12:00 AM 73.4 °F 41.0 °F 31% 29.77 in - North 19.6 mph - N/A   Clear
12:10 AM 73.4 °F 41.0 °F 31% 29.77 in - North 21.9 mph 35.7 mph N/A   Clear
12:30 AM 73.4 °F 41.0 °F 31% 29.77 in - North 24.2 mph - N/A   Clear
1:00 AM 71.6 °F 42.8 °F 35% 29.77 in - North 25.3 mph - N/A   Clear
1:30 AM 71.6 °F 44.6 °F 38% 29.77 in - North 24.2 mph - N/A   Clear
2:00 AM 72 °F 44 °F 25% 29.78 in - North 24.2 mph - -  
2:00 AM 71.6 °F 44.6 °F 38% 29.77 in - North 24.2 mph - N/A   Clear
2:30 AM 73.4 °F 42.8 °F 33% 29.77 in - North 23.0 mph - N/A   Clear
3:00 AM 73 °F 43 °F 23% 29.78 in 19 mi North 26.5 mph - -   Partly Cloudy
3:00 AM 73.4 °F 42.8 °F 33% 29.77 in - North 26.5 mph - N/A   Clear
3:30 AM 71.6 °F 42.8 °F 35% 29.77 in - North 26.5 mph - N/A   Clear
4:00 AM 71.6 °F 44.6 °F 38% 29.77 in - North 29.9 mph - N/A   Clear
4:30 AM 73.4 °F 44.6 °F 36% 29.77 in - North 25.3 mph - N/A   Clear
5:00 AM 73 °F 43 °F 23% 29.78 in - North 27.6 mph - -  
5:00 AM 73.4 °F 42.8 °F 33% 29.77 in - North 27.6 mph - N/A   Clear
5:30 AM 71.6 °F 42.8 °F 35% 29.80 in - North 23.0 mph - N/A   Clear
6:00 AM 71 °F 43 °F 26% 29.81 in 19 mi North 23.0 mph - -   Mostly Cloudy
6:00 AM 71.6 °F 42.8 °F 35% 29.80 in - North 23.0 mph - N/A   Clear
6:30 AM 71.6 °F 42.8 °F 35% 29.80 in 6.2 mi North 25.3 mph - N/A   Unknown
7:00 AM 69.8 °F 44.6 °F 40% 29.83 in - North 25.3 mph - N/A   Clear
7:30 AM 71.6 °F 42.8 °F 35% 29.83 in - North 24.2 mph - N/A   Clear
8:00 AM 72 °F 43 °F 24% 29.83 in - North 25.3 mph - -  
8:00 AM 71.6 °F 42.8 °F 35% 29.83 in - North 25.3 mph - N/A   Clear
8:30 AM 71.6 °F 42.8 °F 35% 29.83 in - North 27.6 mph - N/A   Clear
9:00 AM 73 °F 42 °F 22% 29.84 in 19 mi North 27.6 mph - -   Mostly Cloudy
9:00 AM 73.4 °F 42.8 °F 33% 29.83 in - North 27.6 mph - N/A   Clear
9:30 AM 73.4 °F 42.8 °F 33% 29.83 in - North 27.6 mph - N/A   Clear
10:00 AM 75.2 °F 42.8 °F 31% 29.83 in - North 26.5 mph - N/A   Clear
10:30 AM 77.0 °F 42.8 °F 29% 29.83 in - North 25.3 mph - N/A   Clear
11:00 AM 77 °F 44 °F 20% 29.85 in - North 24.2 mph - -  
11:00 AM 77.0 °F 44.6 °F 32% 29.83 in - North 24.2 mph - N/A   Clear
11:30 AM 77.0 °F 44.6 °F 32% 29.83 in - North 21.9 mph - N/A   Clear
12:00 PM 77 °F 42 °F 18% 29.85 in 19 mi North 19.6 mph - -   Overcast
12:00 PM 77.0 °F 42.8 °F 29% 29.83 in - North 19.6 mph - N/A   Clear
12:30 PM 77.0 °F 44.6 °F 32% 29.86 in 6.2 mi North 18.4 mph - N/A Rain Light Rain
1:00 PM 75.2 °F 46.4 °F 36% 29.89 in - North 8.1 mph - N/A   Clear
1:30 PM 73.4 °F 50.0 °F 44% 29.89 in 6.2 mi North 12.7 mph - N/A Rain Light Rain
2:00 PM 73 °F 50 °F 33% 29.86 in - NE 11.5 mph - -  
2:00 PM 73.4 °F 50.0 °F 44% 29.86 in - NE 11.5 mph - N/A   Clear
2:30 PM 75.2 °F 50.0 °F 41% 29.83 in - NNE 10.4 mph - N/A   Clear
3:00 PM 76 °F 47 °F 25% 29.84 in 25 mi North 17.3 mph - -   Mostly Cloudy
3:00 PM 75.2 °F 46.4 °F 36% 29.83 in - North 17.3 mph - N/A   Clear
3:30 PM 75.2 °F 48.2 °F 38% 29.83 in - North 15.0 mph 26.5 mph N/A   Clear
4:00 PM 78.8 °F 48.2 °F 34% 29.80 in - NNE 20.7 mph - N/A   Clear
4:30 PM 78.8 °F 48.2 °F 34% 29.80 in - North 16.1 mph - N/A   Clear
5:00 PM 80 °F 48 °F 22% 29.83 in - North 20.7 mph - -  
5:00 PM 80.6 °F 48.2 °F 32% 29.83 in - North 20.7 mph - N/A   Clear
5:30 PM 78.8 °F 50.0 °F 36% 29.83 in - NNW 11.5 mph - N/A   Clear
6:00 PM 80 °F 46 °F 20% 29.86 in 19 mi NW 23.0 mph - - Rain Light Rain
6:00 PM 80.6 °F 46.4 °F 30% 29.86 in 6.2 mi NW 23.0 mph - N/A Rain Light Rain
6:30 PM 75.2 °F 50.0 °F 41% 29.86 in - WNW 17.3 mph - N/A   Clear
7:00 PM 75.2 °F 51.8 °F 44% 29.86 in - NW 10.4 mph - N/A   Clear
7:30 PM 73.4 °F 51.8 °F 47% 29.83 in - North 9.2 mph - N/A   Clear
8:00 PM 72 °F 53 °F 41% 29.83 in - North 8.1 mph - -  
8:00 PM 73.4 °F 53.6 °F 50% 29.83 in - North 8.1 mph - N/A   Clear
8:30 PM 71.6 °F 53.6 °F 53% 29.80 in - NNE 13.8 mph - N/A   Clear
9:00 PM 70 °F 54 °F 48% 29.79 in 19 mi NE 11.5 mph - -   Overcast
9:00 PM 69.8 °F 55.4 °F 60% 29.77 in - NE 11.5 mph - N/A   Clear
9:30 PM 69.8 °F 53.6 °F 56% 29.80 in - NE 6.9 mph - N/A   Clear
10:00 PM 69.8 °F 53.6 °F 56% 29.80 in - NE 6.9 mph - N/A   Clear
10:30 PM 71.6 °F 51.8 °F 50% 29.80 in - NNW 9.2 mph - N/A   Clear
11:00 PM 73 °F 52 °F 37% 29.82 in - NNW 17.3 mph - -  
11:00 PM 73.4 °F 51.8 °F 47% 29.83 in 6.2 mi NNW 17.3 mph - N/A Rain Light Rain
11:30 PM 71.6 °F 51.8 °F 50% 29.80 in - North 13.8 mph - N/A   Clear